Location: Big Meadows
(38.5260°N, 78.4400°W)
Time: 10:29:07
(UTC-04:00)

H-2A R/B - Visible Passes

Search period start: 29 June 2016 00:00
Search period end: 09 July 2016 00:00
Orbit: 735 x 837 km, 98.4° (Epoch: 28 June)

Date Brightness Start Highest point End Pass type
(mag) Time Alt. Az. Time Alt. Az. Time Alt. Az.
29 Jun 4.5 00:48:41 10° W 00:49:49 11° W 00:51:08 10° WNW visible
29 Jun 2.7 22:36:57 29° ESE 22:39:12 44° ENE 22:44:21 10° N visible
30 Jun 3.8 00:17:35 21° WSW 00:18:46 22° W 00:22:56 10° NW visible
30 Jun 3.6 22:05:52 16° ESE 22:08:45 24° ENE 22:13:01 10° NNE visible
30 Jun 2.9 23:46:30 36° SW 23:47:50 43° W 23:53:01 10° NNW visible
01 Jul 4.2 21:36:07 10° E 21:38:28 13° ENE 21:40:49 10° NE visible
01 Jul 2.1 23:15:25 47° S 23:17:04 84° WSW 23:22:33 10° NNW visible
02 Jul 2.5 22:44:21 33° SE 22:46:27 51° ENE 22:51:44 10° N visible
03 Jul 4.0 00:24:58 18° WSW 00:26:07 19° W 00:29:56 10° NW visible
03 Jul 3.4 22:13:16 19° ESE 22:15:58 28° ENE 22:20:31 10° N visible
03 Jul 3.1 23:53:54 32° SW 23:55:10 37° W 00:00:11 10° NNW visible
04 Jul 4.1 21:42:38 10° E 21:45:38 15° ENE 21:48:39 10° NNE visible
04 Jul 2.2 23:22:49 47° S 23:24:22 72° WSW 23:29:50 10° NNW visible
05 Jul 2.3 22:51:45 38° SE 22:53:42 61° ENE 22:59:05 10° N visible
06 Jul 4.2 00:32:23 15° WSW 00:33:29 16° W 00:36:48 10° NW visible
06 Jul 3.2 22:20:41 22° ESE 22:23:11 32° ENE 22:27:59 10° N visible
07 Jul 3.4 00:01:19 29° WSW 00:02:30 31° W 00:07:20 10° NW visible
07 Jul 3.9 21:49:37 11° E 21:52:49 18° ENE 21:56:20 10° NNE visible
07 Jul 2.4 23:30:15 46° SSW 23:31:39 61° WSW 23:37:05 10° NNW visible
08 Jul 2.2 22:59:11 43° SE 23:00:58 71° ENE 23:06:25 10° N visible
